www.pogodaiklimat.ru
ПОГОДА в Верхотурье

Архив погоды в Верхотурье (Свердловская область, Россия)

Время
(UTC), дата
06 7.08
09 7.08
12 7.08
15 7.08
18 7.08
21 7.08
00 8.08
03 8.08
06 8.08
09 8.08
12 8.08
15 8.08
18 8.08
21 8.08
00 9.08
03 9.08
06 9.08
09 9.08
12 9.08
15 9.08
18 9.08
21 9.08
00 10.08
03 10.08
06 10.08
09 10.08
12 10.08
15 10.08
18 10.08
21 10.08
00 11.08
03 11.08
06 11.08
09 11.08
12 11.08
15 11.08
18 11.08
21 11.08
00 12.08
03 12.08
06 12.08
09 12.08
12 12.08
15 12.08
18 12.08
21 12.08
00 13.08
03 13.08
06 13.08
09 13.08
12 13.08
15 13.08
18 13.08
21 13.08
00 14.08
03 14.08
Ветер
(напр.,м/с)
Видим. Явления Облачность Т
(С)
Тd
(С)
f
(%)
Тe
(С)
Тes
(С)
Комфортность P
(гПа)
Po
(гПа)
Тmin
(С)
Tmax
(С)
R
(мм)
R24
(мм)
S
(см)
С 2 50 км 4/0
[Ci sp]
+26.7 +16.3 53 +30 +39 душно 1020.0 1005.6
СЗ 2 50 км 6/4 600 м
[Cu med, cong Ci fib]
+28.5 +14.9 44 +31 +37 душно 1019.4 1005.1
С 2 50 км 4/1 600 м
[Cu med, cong Ci fib]
+29.5 +13.2 37 +31 +35 жарко 1018.3 1004.1
СЗ 1 50 км 8/1 600 м
[Sc diur, vesp Ci sp]
+26.2 +18.4 62 +31 +31 очень
душно
1017.8 1003.5 +29.8
штиль 0 20 км местами туман поземный 8/0
[Ci fib]
+18.1 +17.2 94 +18 +18 1018.7 1004.0
штиль 0 20 км местами туман поземный 4/0
[Ci fib]
+15.3 +14.7 96 +15 +15 1019.3 1004.3
штиль 0 20 км местами туман поземный 9/1 600 м
[Sc Ci]
+13.9 +13.4 97 +13 +13 1019.4 1004.4
З 1 20 км 4/0
[Ci fib]
+20.4 +17.5 83 +25 +28 комфорт 1019.4 1004.8 +13.6
СВ 1 20 км 10/0
[Cs]
+27.3 +16.3 51 +31 +40 душно 1019.2 1004.9
В 2 10 км 10/3 600 м
[Cu med, cong Cs]
+28.6 +16.1 47 +32 +38 душно 1018.8 1004.5
ЮВ 2 10 км 10/0
[Cs]
+28.1 +17.4 52 +32 +36 душно 1018.3 1004.0
В 1 4000 м дым 10/0
[As trans]
+24.1 +17.6 67 +28 +28 душно 1018.7 1004.2 +29.2
ЮВ 1 10 км 10/3 600 м
[Sc Ac As]
+17.2 +16.3 94 +18 +18 1019.2 1004.3
штиль 0 10 км туман поземный 4/0
[Ci sp]
+14.3 +13.7 96 +14 +14 1019.7 1004.7
штиль 0 4000 м туман поземный 8/0
[Ac trans Ci sp]
+12.5 +12.0 97 +12 +12 1019.7 1004.6
ЮВ 1 4000 м дымка 10/0
[Cs]
+17.4 +16.5 94 +18 +21 1019.8 1005.0 +12.3
З 1 10 км 4/0
[Ci fib]
+26.6 +17.1 56 +31 +41 душно 1019.3 1005.0
ЮВ 1 10 км гроза без осадков 8/4 300 м
[Cb cap Ci sp]
+29.0 +15.4 44 +32 +39 душно 1018.3 1004.0
СВ 2 10 км {гроза} 10/4 300 м
[Cb calv Ac As]
+25.7 +17.7 61 +30 +31 душно 1018.5 1004.1
С 1 20 км 10/3 300 м
[Cb calv Ac As]
+22.2 +17.7 76 +27 +27 душно 1019.2 1004.7 +29.8
С 2 20 км 10/3 600 м
[Sc Ac trans Cs]
+19.2 +17.7 91 +22 +22 комфорт 1019.8 1005.1
СЗ 1 10 км 6/0
[Ac trans Ci fib]
+17.0 +16.3 96 +18 +18 1019.7 1004.9
З 1 2000 м дымка 10/0
[Ac trans Cs]
+16.3 +15.7 96 +17 +17 1020.0 1005.1
С 1 4000 м дымка 10/0
[As trans]
+17.6 +16.4 93 +19 +20 1020.1 1005.3 +16.0
С 1 2000 м мгла 8/0
[Ac trans Ci sp]
+22.2 +16.8 71 +27 +34 душно 1020.0 1005.4
ЮВ 1 4000 м мгла 10/1 600 м
[Cu hum Ac trans Cs]
+26.5 +17.2 57 +31 +36 душно 1018.9 1004.5
В 1 10 км 10/4 600 м
[Cb calv Ac trans Cs]
+26.6 +16.6 54 +30 +32 душно 1017.6 1003.3
В 1 4000 м в посл. час гроза 10/6 300 м
[Cb calv Ac As]
+21.6 +18.2 81 +26 +26 душно 1017.5 1002.9 +27.4
В 2 20 км гроза без осадков 10/8 300 м
[Cb cap Ac As]
+19.6 +17.9 90 +23 +23 комфорт 1017.2 1002.6
З 2 10 км гроза, ливневой дождь 10/8 300 м
[Cb cap Ac As]
+19.0 +18.0 94 +21 +21 комфорт 1016.8 1002.1
В 1 4000 м туман поземный {гроза, ливн. дождь} 8/4 300 м
[Cb calv Ac trans]
+17.2 +16.7 97 +18 +18 1015.7 1000.9
Ю 2 2000 м в посл. час гроза {ливн. дождь} 10/8 300 м
[Cb calv As op]
+18.1 +17.6 97 +19 +19 1014.9 1000.2 +16.6 3
З 2 10 км {гроза, ливн. дождь} 10/5 300 м
[Cb calv Ac As]
+21.4 +17.5 78 +25 +27 комфорт 1014.5 1000.0
З 2 20 км {гроза, ливн. дождь} 10/6 300 м
[Cb calv Ac As]
+21.1 +17.2 78 +25 +26 комфорт 1014.3 999.8
З 5
{10}
50 км {гроза, ливн. дождь} 6/3 300 м
[Cb calv Ci sp]
+21.3 +11.6 54 +23 +25 комфорт 1014.1 999.5
З 3
{10}
50 км 8/8 300 м
[Cb calv Ac trans]
+17.5 +11.3 67 +18 +18 1015.3 1000.5 +22.3 4
З 3
{10}
20 км 10/8 300 м
[Cb calv Ac As]
+14.7 +10.0 73 +14 +14 1015.7 1000.8
З 2 20 км 8/3 300 м
[Cb calv Ci sp]
+13.1 +9.7 80 +12 +12 1015.0 1000.0
З 2 50 км 9/8 300 м
[Cb calv Ac und]
+12.6 +9.7 82 +12 +12 1015.1 1000.0
З 4 50 км в посл. час ливневой дождь 9/8 300 м
[Cb calv Ac und]
+15.0 +11.2 78 +14 +14 1015.1 1000.2 +12.3 0.0
З 3 50 км {ливн. дождь} 8/3 600 м
[Sc Ac trans Ci sp]
+20.3 +12.2 60 +23 +26 комфорт 1014.2 999.6
З 5
{10}
50 км 10/5 300 м
[Cb calv Ac As]
+20.8 +10.4 51 +23 +23 комфорт 1014.0 999.4
З 4
{10}
50 км 9/4 300 м
[Cb calv Ac trans Ci sp]
+20.3 +11.2 56 +22 +23 комфорт 1013.2 998.6
З 3 50 км 9/6 300 м
[Cb calv Ac trans]
+19.1 +12.1 64 +20 +20 1011.8 997.2 +21.7
З 2 20 км 10/5 300 м
[Cb calv Ac As]
+18.0 +11.8 67 +19 +19 1011.0 996.3
З 2 20 км 3/1 600 м
[Sc Ac trans]
+16.6 +13.0 79 +17 +17 1010.0 995.3
З 2 50 км 5/4 600 м
[Sc Ac trans]
+15.3 +13.2 87 +15 +15 1009.0 994.3
З 4 50 км 3/1 600 м
[Sc Ac trans]
+18.5 +13.8 74 +19 +20 1008.4 993.8 +14.9
З 6-11
{13}
50 км 8/8 600 м
[Cu Sc]
+20.1 +8.8 48 +21 +22 комфорт 1009.2 994.6
СЗ 6-11
{13}
50 км 8/8 600 м
[Cu Sc]
+20.0 +4.7 37 +20 +21 1011.2 996.5
СЗ 5-10
{13}
50 км 8/6 300 м
[Cb calv Ac trans]
+19.1 +5.9 42 +19 +20 1013.7 999.0
З 2
{10}
50 км 3/1 600 м
[Sc Ac trans]
+16.9 +6.5 50 +17 +17 1015.2 1000.3 +20.8
З 1
{10}
20 км 1/1 600 м
[Sc]
+12.6 +6.9 68 +13 +13 1016.6 1001.5
З 2 20 км ясно +9.5 +6.6 82 +8 +8 1017.1 1001.9
З 2 50 км 1/0
[Ac trans]
+8.4 +6.3 87 +6 +6 1018.1 1002.8
З 2 50 км 1/0
[Ac trans]
+11.7 +7.3 74 +11 +13 1018.7 1003.6 +8.3
Местоположение метеостанции Верхотурье (Свердловская область, Россия): широта 58.87 долгота 60.78 высота над уровнем моря 126 м.
В архиве по умолчанию представлена погода в Верхотурье за последнюю неделю. Архивные данные за месяц целиком и за предыдущие месяцы, начиная с января 2011 года, Вы можете получить, выбрав интересующий диапазон дат из раскрывающегося списка и нажав кнопку "Найти!".
*Определитесь, кто Вы:
Внимание! Время в таблицах - всемирное. Для получения местного времени необходимо прибавить поправку, которая равна 5 ч.
Смотрите также архив погоды в соседних городах и на ближайших метеорологических станциях:
Партнеры нашего сайта:      
Пояснения к столбцам:
  • Ветер - указаны скорость ветра в м/с - средняя за 10 мин, порывы в срок и между сроками (в фигурных скобках) и направление, откуда дует ветер: С - северный,
  • СВ - северо-восточный, В - восточный, ЮВ - юго-восточный, Ю - южный, ЮЗ - юго-западный, З - западный, СЗ - северо-западный.
  • Видимость - горизонтальная дальность видимости в метрах или километрах. При видимости от 1 до 10 км при отсутствии осадков обычно наблюдается дымка, при ухудшении видимости до 1 км и менее - туман. В сухую погоду видимость может ухудшаться дымом, пылью или мглою.
  • Явления - указаны атмосферные явления, наблюдавшиеся в срок или в последний час перед сроком; фигурными скобками обозначены явления, наблюдавшиеся между сроками (за 1-3 часа до срока); квадратными скобками обозначены град или гололедные отложения с указанием их диаметра в мм.
  • Облачность - указаны через наклонную черту общая и нижняя облачность в баллах и высота нижней границы облаков в метрах; квадратными скобками обозначены формы облаков: Ci - перистые, Cs - перисто-слоистые, Cc - перисто-кучевые, Ac - высококучевые, As - высокослоистые, Sc - слоисто-кучевые, Ns - слоисто-дождевые, Cu - кучевые, Cb - кучево-дождевые. Подробнее классификацию облаков см. в Атласе облаков (PDF).
  • T - Температура воздуха - температура, измеренная на высоте 2 м над землей.
  • Td - Температура точки росы - температура, при понижении до которой содержащийся в воздухе водяной пар достигнет насыщения.
  • f - Относительная влажность воздуха - влажноcть воздуха, измеренная на высоте 2 м над землей.
  • Te - Эффективная температура - температура, которую ощущает одетый по сезону человек в тени. Характеристика душности погоды. При расчете учитывается влияние влажности воздуха и скорости ветра на теплоощущения человека.
  • Tes - Эффективная температура на солнце - температура, которую ощущает человек, с поправкой на солнечный нагрев. Характеристика знойности погоды. Зависит от высоты солнца над горизонтом, облачности и скорости ветра. Ночью, в пасмурную погоду, а также при ветре 12 м/с и более поправка равна нулю.
  • P - Атмосферное давление - приведенное к уровню моря атмосферное давление.
  • Po - Атмосферное давление - измеренное на уровне метеостанции атмосферное давление.
  • Tmin - Минимальная температура - минимум температуры воздуха на высоте 2 м над землей.
  • Tmax - Максимальная температура - максимум температуры воздуха на высоте 2 м над землей.
  • R - Количество осадков - Количество выпавших осадков за период времени, мм. При наведении курсора мыши на число - период времени, за который выпало указанное количество осадков.
  • R24 - Количество осадков - Количество выпавших осадков за 24 часа, мм.
  • S - Снежный покров - Высота снежного покрова, см. При наведении курсора мыши на число - состояние снежного покрова и степень покрытия местности в баллах.